Location: Pinhead Observatory
(34.4473°N, 118.1985°W)
Time: 04:07:52
(UTC-07:00)

Daily predictions for brighter satellites

Satellite Brightness Start Highest point End
(mag) Time Altitude Azimuth Time Altitude Azimuth Time Altitude Azimuth
Cosmos 2360 Rocket 4.5 03:09:38 19° NE 03:09:38 19° NE 03:11:26 10° NE
CENTAUR R/B 4.4 03:30:50 22° N 03:30:50 22° N 03:33:54 10° NNE
CZ-4B R/B 4.4 04:12:39 10° NNE 04:17:54 40° E 04:20:11 27° SE
Cosmos 2322 Rocket 4.3 04:22:34 14° NNW 04:22:34 14° NNW 04:23:56 10° NNW
Cosmos 2074 Rocket 3.9 04:14:09 10° N 04:20:25 87° E 04:20:25 87° E
MOS 1-B 4.4 04:15:22 10° NNE 04:20:26 68° N 04:20:26 68° N
SL-16 R/B 4.3 04:27:54 14° NNW 04:27:54 14° NNW 04:29:21 10° NNW
Cosmos 2237 4.2 04:30:31 70° NNW 04:30:31 70° NNW 04:35:46 10° NNE
Okean O Rocket 2.2 04:27:43 10° NNE 04:31:30 57° NE 04:31:30 57° NE
Cosmos 2219 Rocket 3.0 04:30:15 32° SSE 04:32:15 46° ESE 04:37:33 10° NE
Resurs 1-4 Rocket 4.4 04:29:46 10° NNW 04:30:22 12° NNW 04:30:22 12° NNW
COSMOS 2428 2.5 04:33:59 85° SSW 04:34:09 90° WNW 04:39:52 10° NNE
CZ-2D R/B 4.3 04:32:25 10° NNW 04:33:27 14° NNW 04:33:27 14° NNW
Lacrosse 4 Rocket 2.7 04:40:04 32° SE 04:40:04 32° SE 04:42:31 10° SE
Cosmos 1844 Rocket 3.8 04:37:48 10° N 04:43:07 44° ENE 04:48:23 10° SE
DELTA 2 R/B (1) 3.7 04:43:29 57° NW 04:44:05 60° NNW 04:49:34 10° ENE
Cosmos 2360 Rocket 3.4 04:51:25 26° NW 04:51:25 26° NW 04:55:11 10° N
Meteor 1-19 Rocket 4.2 04:53:22 23° S 04:57:00 80° E 05:02:44 10° N
Cosmos 2184 Rocket 4.1 04:51:08 10° NNW 04:57:03 47° W 04:57:24 47° W
ADEOS II 1.9 04:52:21 10° N 04:57:38 83° WNW 04:59:40 39° SSW
Cosmos 2278 Rocket 4.5 04:54:05 10° N 04:58:42 25° ENE 05:03:16 10° ESE
Cosmos 2237 Rocket 3.2 04:54:55 10° S 05:00:16 46° ESE 05:05:41 10° NE
USA 142 4.4 05:00:59 43° SSW 05:01:50 49° S 05:10:55 10° ESE
Cosmos 1666 3.7 05:01:54 10° N 05:05:38 46° E 05:09:23 10° SSE
Meteor 2-4 Rocket 3.9 05:01:39 10° S 05:07:14 69° E 05:12:42 10° NNE
Cosmos 2208 Rocket 4.5 05:09:58 40° W 05:10:39 42° WNW 05:15:50 10° N
ATLAS 5 CENTAUR R/B 4.1 05:06:03 10° NNW 05:11:33 34° NE 05:17:24 10° ESE
Cosmos 1743 2.5 05:09:27 10° N 05:13:18 74° W 05:15:26 25° S
Cosmos 962 Rocket 4.5 05:08:21 10° N 05:14:41 88° E 05:21:01 10° S
OAO 3 Copernicus 4.2 05:13:43 41° W 05:15:30 83° N 05:20:33 10° E
GOES 2 Rocket 3.9 05:17:58 34° SW 05:19:25 43° S 05:24:56 10° ESE
USA 215 3.3 05:13:00 10° SE 05:19:34 83° NE 05:26:09 10° NW
CZ-4B R/B 4.2 05:18:30 10° NNW 05:20:24 22° NW 05:20:24 22° NW
PSLV R/B 3.8 05:17:39 10° N 05:21:49 46° WNW 05:22:57 37° WSW
Cosmos 2333 Rocket 2.1 05:17:45 20° SSW 05:21:50 81° WNW 05:27:35 10° NNE
EXPRESS MD2 4.0 05:19:51 22° SSW 05:23:22 58° SE 05:26:37 10° ENE
Meteor 1-31 Rocket 3.0 05:19:45 10° NNE 05:23:33 67° ESE 05:27:19 10° S
EO 1 Del DPAF 3.5 05:24:02 29° SSW 05:25:32 45° W 05:29:16 10° NNW
Okean 1-7 Rocket 3.5 05:23:06 14° SSW 05:26:55 70° W 05:31:24 10° N
OTV 4 1.8 05:27:14 24° S 05:27:43 26° SSE 05:30:05 10° E
RUBIN 8/PSLV 4.4 05:25:21 10° N 05:29:39 83° W 05:33:56 10° SSW
USA 229 DEB 3.8 05:25:44 23° SW 05:30:00 60° NW 05:36:51 10° NNE
USA 229 3.8 05:25:48 23° SW 05:30:06 60° NW 05:36:57 10° NNE
Cosmos 2154 Rocket 4.1 05:25:08 10° NNW 05:31:03 48° W 05:36:57 10° SSW
Feng Yun 1-1 Rocket 4.4 05:27:45 10° NNE 05:33:37 81° ESE 05:39:17 10° SSW
Meteor PRIRODA 3.8 05:32:38 10° N 05:36:19 53° WNW 05:38:59 17° SSW
Hubble Space Telescope 2.4 05:35:11 17° SSW 05:37:13 24° SSE 05:40:34 10° ESE
Thor Agena Rocket 4.1 05:34:27 10° SSE 05:39:25 59° ENE 05:44:22 10° N
Tiangong 2 1.3 05:38:50 22° NW 05:40:38 65° NNE 05:43:45 10° ESE
Cosmos 1606 Rocket 4.2 05:36:33 10° N 05:41:00 60° E 05:45:23 10° SSE
NOSS 3-1 (A) 4.2 05:37:04 10° S 05:42:30 50° ESE 05:48:27 10° NE
Iridium 2 3.8 05:41:06 10° N 05:44:56 82° E 05:48:46 10° S
NOSS 3-1 (C) 3.5 05:39:21 10° SSW 05:44:59 74° ESE 05:51:12 10° NE
Cosmos 2150 Rocket 4.3 05:40:41 10° NNW 05:46:01 76° ENE 05:51:23 10° SSE
Cosmos 468 Rocket 4.3 05:42:38 14° SW 05:46:47 46° WNW 05:51:47 10° N
GPS 2-04 Rocket1 2.8 05:45:09 22° WSW 05:47:33 66° SSE 05:51:20 10° E
Cosmos 2181 Rocket 4.2 05:42:41 10° SSW 05:48:36 47° W 05:54:38 10° N
SL-8 Rocket 3.9 05:44:34 10° N 05:50:47 79° W 05:56:55 10° S
Cosmos 1898 Rocket 3.4 05:46:28 10° NNW 05:51:38 71° WSW 05:56:46 10° S
Cosmos 1844 3.7 05:46:16 10° NNW 05:51:56 61° WSW 05:57:29 10° S
ERS-2 2.8 05:51:35 10° N 05:54:59 35° WNW 05:58:21 10° SW
SL-16 R/B 2.9 05:51:16 10° S 05:56:47 59° ESE 06:02:21 10° NNE
CZ-4B R/B 4.4 05:53:45 10° NNW 05:58:09 24° WNW 06:02:06 12° WSW
Cosmos 2228 4.0 06:00:58 10° N 06:05:13 53° E 06:09:28 10° SSE
Cosmos 1980 4.2 06:02:04 10° SW 06:07:21 40° WNW 06:12:40 10° N
Cosmos 1437 3.6 06:04:42 10° SW 06:07:39 31° WNW 06:10:37 10° NNW
COSMO-SKYMED 1 2.9 06:03:51 10° SSE 06:08:10 72° ENE 06:12:29 10° N
Cosmos 1025 Rocket 4.0 06:06:57 10° SW 06:10:37 26° WNW 06:14:21 10° NNW
Cosmos 1763 Rocket 3.7 06:09:09 10° SW 06:14:02 49° WNW 06:19:00 10° N
Cosmos 1726 Rocket 3.6 06:11:31 10° NNW 06:15:55 62° W 06:20:18 10° S
Cosmos 2219 Rocket 3.5 06:12:13 10° WSW 06:16:23 21° WNW 06:20:35 10° N
Meteor 1-28 Rocket 3.6 06:13:06 10° SSE 06:16:53 71° ENE 06:20:41 10° N
Cosmos 2218 Rocket 4.1 06:11:51 10° NNW 06:18:04 56° W 06:24:12 10° SSW
Cosmos 1937 Rocket 3.7 06:15:30 10° NNW 06:20:40 53° WSW 06:25:46 10° S
Cosmos 1892 Rocket 4.0 06:17:43 10° SSW 06:21:48 40° W 06:25:55 10° N
Okean-O 3.7 06:18:38 10° NNW 06:22:18 26° WNW 06:25:57 10° SW
Cosmos 1809 Rocket 4.5 06:18:14 10° NNW 06:24:22 69° W 06:30:28 10° S
Cosmos 1844 Rocket 3.8 06:22:36 10° NW 06:26:35 20° W 06:30:35 10° SSW
Timation 1 Rocket 4.4 06:21:08 10° NNW 06:27:10 89° ENE 06:33:08 10° SSE
BREEZE M DEB (TANK) 3.0 06:22:12 10° NW 06:28:59 61° NNE 06:31:41 10° ESE
